Check out our new BloomSky Weather System.

Active alerts


No alerts


Thunder radar  blitzortung!


Rain radar more information rain snow radar


Visit our other weather sites:

Template documentation
and downloads

And another site



Weather Underground History page Text

Daily Summary for October 4, 2017 Units:  English    Metric   Both
« Previous Day
Next Day »
Daily Weekly Monthly Yearly Custom
  High: Low: Average:
Temperature: 88.5 °F 72.1 °F 79.6 °F
Dew Point: 76.8 °F 70.0 °F 73.3 °F
Humidity: 97 % 60 % 82 %
Wind Speed: 7.0 mph 0.0 mph 1.5 mph
Wind Gust: 12.0 mph - -
Wind:- - SE
Pressure: 30.20 in 30.08 in -
Precipitation: 0.01 in    
Historical Graphs
 
 
Tabular Data for October 4, 2017
Time Temperature Dew Point Pressure Wind Wind Speed Wind Gust Humidity Rainfall Rate (Hourly)
00:01 77.7 °F 76.8 °F 30.16 in NNE 1.0 mph 3.0 mph 97 % 0.00 in
00:06 77.5 °F 76.6 °F 30.16 in Calm   3.0 mph 97 % 0.00 in
00:11 77.5 °F 76.6 °F 30.16 in Calm   3.0 mph 97 % 0.00 in
00:12 77.5 °F 76.6 °F 30.16 in Calm   3.0 mph 97 % 0.00 in
00:17 77.5 °F 76.6 °F 30.16 in Calm   3.0 mph 97 % 0.00 in
00:22 77.5 °F 76.6 °F 30.16 in NE 2.0 mph 3.0 mph 97 % 0.00 in
00:27 77.5 °F 76.6 °F 30.16 in ENE 3.0 mph 4.0 mph 97 % 0.00 in
00:32 77.5 °F 76.6 °F 30.15 in Calm   4.0 mph 97 % 0.00 in
00:37 77.4 °F 76.5 °F 30.15 in East 2.0 mph 4.0 mph 97 % 0.00 in
00:42 77.4 °F 76.5 °F 30.15 in Calm   4.0 mph 97 % 0.00 in
00:47 77.4 °F 76.5 °F 30.15 in Calm   5.0 mph 97 % 0.00 in
00:52 77.4 °F 76.5 °F 30.14 in North 3.0 mph 5.0 mph 97 % 0.00 in
00:57 77.4 °F 76.5 °F 30.15 in Calm   6.0 mph 97 % 0.00 in
01:02 77.4 °F 76.5 °F 30.14 in SSW 1.0 mph 6.0 mph 97 % 0.00 in
01:07 77.4 °F 76.5 °F 30.14 in NE 3.0 mph 6.0 mph 97 % 0.00 in
01:12 77.4 °F 76.5 °F 30.15 in SE 2.0 mph 6.0 mph 97 % 0.00 in
01:17 77.4 °F 76.5 °F 30.14 in ESE 1.0 mph 6.0 mph 97 % 0.00 in
01:22 77.4 °F 76.5 °F 30.14 in SE 3.0 mph 6.0 mph 97 % 0.00 in
01:27 77.5 °F 76.3 °F 30.14 in Calm   7.0 mph 96 % 0.00 in
01:32 77.4 °F 76.1 °F 30.14 in ENE 1.0 mph 7.0 mph 96 % 0.00 in
01:37 77.4 °F 76.1 °F 30.14 in East 2.0 mph 7.0 mph 96 % 0.00 in
01:42 77.4 °F 76.1 °F 30.14 in SE 1.0 mph 6.0 mph 96 % 0.00 in
01:47 77.2 °F 75.9 °F 30.14 in West 1.0 mph 8.0 mph 96 % 0.00 in
01:52 77.2 °F 75.9 °F 30.14 in ENE 7.0 mph 8.0 mph 96 % 0.00 in
01:57 77.2 °F 75.9 °F 30.14 in SE 2.0 mph 8.0 mph 96 % 0.00 in
02:02 77.2 °F 75.6 °F 30.14 in NNE 2.0 mph 10.0 mph 95 % 0.00 in
02:07 77.4 °F 75.7 °F 30.14 in SE 7.0 mph 10.0 mph 95 % 0.00 in
02:12 77.4 °F 75.6 °F 30.13 in SW 3.0 mph 12.0 mph 94 % 0.01 in
02:17 77.4 °F 75.6 °F 30.14 in ESE 3.0 mph 12.0 mph 94 % 0.01 in
02:22 77.4 °F 75.6 °F 30.13 in NE 4.0 mph 12.0 mph 94 % 0.01 in
02:27 77.4 °F 75.6 °F 30.13 in SSE 3.0 mph 9.0 mph 94 % 0.01 in
02:32 77.4 °F 75.6 °F 30.13 in ENE 5.0 mph 10.0 mph 94 % 0.01 in
02:37 77.4 °F 75.2 °F 30.14 in ENE 7.0 mph 10.0 mph 93 % 0.01 in
02:42 77.4 °F 75.2 °F 30.14 in SE 4.0 mph 11.0 mph 93 % 0.01 in
02:47 77.4 °F 75.2 °F 30.14 in SSE 2.0 mph 11.0 mph 93 % 0.01 in
02:52 77.4 °F 75.2 °F 30.13 in East 3.0 mph 11.0 mph 93 % 0.01 in
02:57 77.2 °F 74.7 °F 30.13 in SE 4.0 mph 9.0 mph 92 % 0.01 in
03:02 77.2 °F 74.7 °F 30.13 in SE 1.0 mph 9.0 mph 92 % 0.01 in
03:07 77.0 °F 74.5 °F 30.13 in East 6.0 mph 9.0 mph 92 % 0.01 in
03:12 76.8 °F 74.3 °F 30.13 in ENE 4.0 mph 9.0 mph 92 % 0.00 in
03:17 76.6 °F 74.1 °F 30.13 in NE 4.0 mph 9.0 mph 92 % 0.00 in
03:22 76.6 °F 74.1 °F 30.14 in NE 5.0 mph 11.0 mph 92 % 0.00 in
03:27 76.5 °F 73.6 °F 30.13 in ESE 4.0 mph 11.0 mph 91 % 0.00 in
03:33 76.5 °F 73.6 °F 30.13 in East 3.0 mph 11.0 mph 91 % 0.00 in
03:43 76.3 °F 73.4 °F 30.13 in Calm   8.0 mph 91 % 0.00 in
03:48 76.3 °F 73.4 °F 30.13 in SE 1.0 mph 9.0 mph 91 % 0.00 in
03:53 76.1 °F 73.2 °F 30.13 in ESE 1.0 mph 9.0 mph 91 % 0.00 in
03:58 75.9 °F 73.0 °F 30.13 in North 3.0 mph 9.0 mph 91 % 0.00 in
04:03 75.9 °F 73.0 °F 30.13 in Calm   7.0 mph 91 % 0.00 in
04:08 75.7 °F 72.9 °F 30.13 in Calm   6.0 mph 91 % 0.00 in
04:13 75.7 °F 72.9 °F 30.13 in Calm   6.0 mph 91 % 0.00 in
04:18 75.6 °F 72.7 °F 30.13 in East 4.0 mph 7.0 mph 91 % 0.00 in
04:23 75.6 °F 72.7 °F 30.13 in NNE 1.0 mph 7.0 mph 91 % 0.00 in
04:28 75.4 °F 72.3 °F 30.13 in ESE 1.0 mph 7.0 mph 90 % 0.00 in
04:33 75.4 °F 72.3 °F 30.13 in ENE 1.0 mph 7.0 mph 90 % 0.00 in
04:38 75.4 °F 72.3 °F 30.14 in NNE 1.0 mph 6.0 mph 90 % 0.00 in
04:43 75.2 °F 72.1 °F 30.14 in ENE 2.0 mph 6.0 mph 90 % 0.00 in
04:48 75.0 °F 72.1 °F 30.14 in NW 1.0 mph 6.0 mph 91 % 0.00 in
04:53 74.8 °F 72.0 °F 30.14 in NNE 2.0 mph 5.0 mph 91 % 0.00 in
04:58 74.7 °F 71.8 °F 30.14 in Calm   5.0 mph 91 % 0.00 in
05:03 74.5 °F 72.0 °F 30.14 in Calm   4.0 mph 92 % 0.00 in
05:08 74.5 °F 72.0 °F 30.14 in ENE 1.0 mph 3.0 mph 92 % 0.00 in
05:13 74.3 °F 71.8 °F 30.14 in Calm   3.0 mph 92 % 0.00 in
05:18 74.1 °F 71.6 °F 30.14 in NNW 1.0 mph 3.0 mph 92 % 0.00 in
05:23 73.9 °F 71.8 °F 30.14 in NNE 1.0 mph 3.0 mph 93 % 0.00 in
05:28 73.9 °F 71.8 °F 30.14 in Calm   4.0 mph 93 % 0.00 in
05:33 73.9 °F 71.8 °F 30.14 in ENE 1.0 mph 4.0 mph 93 % 0.00 in
05:38 73.8 °F 71.6 °F 30.15 in NNW 3.0 mph 4.0 mph 93 % 0.00 in
05:43 73.8 °F 71.6 °F 30.15 in Calm   4.0 mph 93 % 0.00 in
05:48 73.8 °F 72.0 °F 30.15 in Calm   4.0 mph 94 % 0.00 in
05:53 73.6 °F 71.8 °F 30.15 in ENE 1.0 mph 3.0 mph 94 % 0.00 in
05:58 73.6 °F 71.8 °F 30.15 in WNW 1.0 mph 5.0 mph 94 % 0.00 in
06:03 73.6 °F 71.8 °F 30.15 in Calm   5.0 mph 94 % 0.00 in
06:08 73.4 °F 71.2 °F 30.15 in East 1.0 mph 5.0 mph 93 % 0.00 in
06:13 73.4 °F 71.2 °F 30.15 in Calm   6.0 mph 93 % 0.00 in
06:18 73.4 °F 71.2 °F 30.16 in NW 2.0 mph 6.0 mph 93 % 0.00 in
06:23 73.2 °F 70.7 °F 30.16 in North 1.0 mph 6.0 mph 92 % 0.00 in
06:28 73.2 °F 70.7 °F 30.16 in NNE 2.0 mph 5.0 mph 92 % 0.00 in
06:33 73.0 °F 70.5 °F 30.16 in Calm   3.0 mph 92 % 0.00 in
06:38 73.0 °F 70.5 °F 30.16 in Calm   3.0 mph 92 % 0.00 in
06:48 72.9 °F 70.3 °F 30.16 in Calm   4.0 mph 92 % 0.00 in
06:53 72.7 °F 70.2 °F 30.16 in North 1.0 mph 4.0 mph 92 % 0.00 in
06:58 72.7 °F 70.2 °F 30.17 in NNW 1.0 mph 3.0 mph 92 % 0.00 in
07:03 72.7 °F 70.2 °F 30.17 in Calm   3.0 mph 92 % 0.00 in
07:08 72.5 °F 70.0 °F 30.17 in Calm   3.0 mph 92 % 0.00 in
07:13 72.5 °F 70.3 °F 30.17 in Calm   4.0 mph 93 % 0.00 in
07:18 72.3 °F 70.2 °F 30.17 in NNW 1.0 mph 4.0 mph 93 % 0.00 in
07:23 72.3 °F 70.2 °F 30.17 in Calm   4.0 mph 93 % 0.00 in
07:28 72.1 °F 70.0 °F 30.18 in Calm   2.0 mph 93 % 0.00 in
07:33 72.1 °F 70.3 °F 30.18 in Calm   2.0 mph 94 % 0.00 in
07:38 72.1 °F 70.3 °F 30.18 in North 1.0 mph 3.0 mph 94 % 0.00 in
07:43 72.1 °F 70.3 °F 30.18 in North 1.0 mph 3.0 mph 94 % 0.00 in
07:48 72.1 °F 70.3 °F 30.18 in North 1.0 mph 3.0 mph 94 % 0.00 in
07:53 72.3 °F 70.5 °F 30.18 in North 2.0 mph 3.0 mph 94 % 0.00 in
07:58 72.5 °F 70.7 °F 30.19 in Calm   3.0 mph 94 % 0.00 in
08:03 72.9 °F 70.7 °F 30.18 in Calm   5.0 mph 93 % 0.00 in
08:08 73.2 °F 71.1 °F 30.18 in NE 2.0 mph 5.0 mph 93 % 0.00 in
08:14 73.8 °F 71.2 °F 30.19 in NE 1.0 mph 5.0 mph 92 % 0.00 in
08:19 73.9 °F 71.1 °F 30.19 in NNE 6.0 mph 6.0 mph 91 % 0.00 in
08:24 74.1 °F 71.2 °F 30.19 in East 1.0 mph 8.0 mph 91 % 0.00 in
08:29 74.5 °F 71.4 °F 30.19 in NNE 2.0 mph 8.0 mph 90 % 0.00 in
08:34 74.8 °F 71.4 °F 30.19 in ENE 1.0 mph 8.0 mph 89 % 0.00 in
08:39 75.0 °F 71.2 °F 30.20 in NNE 3.0 mph 6.0 mph 88 % 0.00 in
08:44 74.8 °F 71.1 °F 30.19 in Calm   6.0 mph 88 % 0.00 in
08:49 75.0 °F 71.2 °F 30.19 in ENE 4.0 mph 9.0 mph 88 % 0.00 in
08:54 75.4 °F 71.6 °F 30.20 in ENE 2.0 mph 9.0 mph 88 % 0.00 in
08:59 75.9 °F 72.1 °F 30.19 in East 2.0 mph 9.0 mph 88 % 0.00 in
09:04 76.5 °F 72.0 °F 30.19 in WNW 2.0 mph 6.0 mph 86 % 0.00 in
09:09 76.6 °F 72.5 °F 30.19 in ENE 3.0 mph 7.0 mph 87 % 0.00 in
09:14 76.8 °F 72.0 °F 30.19 in NNE 4.0 mph 7.0 mph 85 % 0.00 in
09:19 77.0 °F 71.8 °F 30.19 in NE 5.0 mph 7.0 mph 84 % 0.00 in
09:24 77.4 °F 72.1 °F 30.19 in NNW 5.0 mph 7.0 mph 84 % 0.00 in
09:29 77.5 °F 72.0 °F 30.19 in North 2.0 mph 7.0 mph 83 % 0.00 in
09:34 78.1 °F 72.9 °F 30.19 in NE 5.0 mph 7.0 mph 84 % 0.00 in
09:39 78.4 °F 72.5 °F 30.19 in East 6.0 mph 7.0 mph 82 % 0.00 in
09:44 78.8 °F 72.9 °F 30.19 in ENE 2.0 mph 7.0 mph 82 % 0.00 in
09:49 79.0 °F 73.0 °F 30.19 in WNW 2.0 mph 7.0 mph 82 % 0.00 in
09:54 79.2 °F 72.9 °F 30.20 in NE 3.0 mph 8.0 mph 81 % 0.00 in
09:55 79.2 °F 72.9 °F 30.20 in East 4.0 mph 8.0 mph 81 % 0.00 in
10:05 79.9 °F 73.6 °F 30.20 in ENE 1.0 mph 8.0 mph 81 % 0.00 in
10:10 80.2 °F 73.0 °F 30.20 in East 1.0 mph 7.0 mph 79 % 0.00 in
10:15 80.2 °F 73.6 °F 30.20 in NE 4.0 mph 8.0 mph 80 % 0.00 in
10:20 80.1 °F 73.4 °F 30.19 in NNE 7.0 mph 8.0 mph 80 % 0.00 in
10:25 80.1 °F 73.4 °F 30.19 in NW 1.0 mph 8.0 mph 80 % 0.00 in
10:30 80.2 °F 73.6 °F 30.19 in NE 1.0 mph 7.0 mph 80 % 0.00 in
10:35 80.8 °F 74.5 °F 30.19 in North 1.0 mph 7.0 mph 81 % 0.00 in
10:40 81.3 °F 74.5 °F 30.19 in Calm   7.0 mph 80 % 0.00 in
10:45 81.9 °F 73.9 °F 30.19 in Calm   6.0 mph 77 % 0.00 in
10:50 81.9 °F 73.9 °F 30.19 in ESE 4.0 mph 7.0 mph 77 % 0.00 in
10:55 81.7 °F 73.8 °F 30.19 in ENE 1.0 mph 7.0 mph 77 % 0.00 in
11:00 81.5 °F 74.3 °F 30.19 in ENE 2.0 mph 7.0 mph 79 % 0.00 in
11:05 81.7 °F 74.5 °F 30.19 in ENE 2.0 mph 8.0 mph 79 % 0.00 in
11:10 81.9 °F 74.3 °F 30.19 in NW 2.0 mph 8.0 mph 78 % 0.00 in
11:15 81.9 °F 74.3 °F 30.19 in ENE 1.0 mph 8.0 mph 78 % 0.00 in
11:20 82.2 °F 74.3 °F 30.19 in East 3.0 mph 7.0 mph 77 % 0.00 in
11:25 81.9 °F 73.9 °F 30.19 in ENE 4.0 mph 7.0 mph 77 % 0.00 in
11:30 82.6 °F 75.0 °F 30.19 in NE 5.0 mph 7.0 mph 78 % 0.00 in
11:35 82.8 °F 74.8 °F 30.19 in ENE 2.0 mph 8.0 mph 77 % 0.00 in
11:40 83.1 °F 75.2 °F 30.18 in NW 1.0 mph 8.0 mph 77 % 0.00 in
11:45 83.1 °F 75.2 °F 30.18 in ENE 1.0 mph 8.0 mph 77 % 0.00 in
11:50 83.5 °F 75.6 °F 30.18 in ENE 3.0 mph 5.0 mph 77 % 0.00 in
11:55 83.1 °F 75.2 °F 30.18 in ESE 4.0 mph 6.0 mph 77 % 0.00 in
12:05 83.5 °F 74.7 °F 30.18 in ENE 2.0 mph 8.0 mph 75 % 0.00 in
12:10 83.7 °F 75.2 °F 30.18 in SE 4.0 mph 8.0 mph 76 % 0.00 in
12:15 83.7 °F 75.2 °F 30.18 in East 4.0 mph 8.0 mph 76 % 0.00 in
12:21 84.0 °F 75.2 °F 30.18 in East 3.0 mph 6.0 mph 75 % 0.00 in
12:25 84.9 °F 76.1 °F 30.18 in SSE 3.0 mph 6.0 mph 75 % 0.00 in
12:31 84.9 °F 75.2 °F 30.17 in SE 2.0 mph 6.0 mph 73 % 0.00 in
12:36 84.7 °F 75.2 °F 30.17 in SE 2.0 mph 6.0 mph 73 % 0.00 in
12:41 85.3 °F 75.2 °F 30.17 in SE 5.0 mph 9.0 mph 72 % 0.00 in
12:46 85.5 °F 76.3 °F 30.17 in Calm   9.0 mph 74 % 0.00 in
12:51 86.2 °F 74.8 °F 30.17 in SSE 4.0 mph 9.0 mph 69 % 0.00 in
12:57 85.1 °F 74.1 °F 30.17 in SE 1.0 mph 12.0 mph 70 % 0.00 in
13:02 85.3 °F 75.6 °F 30.17 in NNW 4.0 mph 12.0 mph 73 % 0.00 in
13:07 85.8 °F 75.4 °F 30.17 in WNW 1.0 mph 12.0 mph 71 % 0.00 in
13:12 85.6 °F 75.6 °F 30.17 in NNW 2.0 mph 7.0 mph 72 % 0.00 in
13:17 85.8 °F 75.7 °F 30.17 in ENE 2.0 mph 7.0 mph 72 % 0.00 in
13:22 85.6 °F 75.2 °F 30.16 in NW 1.0 mph 7.0 mph 71 % 0.00 in
13:27 85.5 °F 75.7 °F 30.16 in NNE 3.0 mph 7.0 mph 73 % 0.00 in
13:32 85.3 °F 74.8 °F 30.16 in NW 1.0 mph 8.0 mph 71 % 0.00 in
13:35 84.9 °F 74.8 °F 30.16 in NNW 1.0 mph 8.0 mph 72 % 0.00 in
13:40 85.5 °F 76.3 °F 30.15 in NE 3.0 mph 8.0 mph 74 % 0.00 in
13:45 86.2 °F 75.2 °F 30.15 in WNW 3.0 mph 6.0 mph 70 % 0.00 in
13:50 86.2 °F 74.8 °F 30.15 in Calm   7.0 mph 69 % 0.00 in
13:55 86.4 °F 75.4 °F 30.14 in ESE 2.0 mph 7.0 mph 70 % 0.00 in
14:00 86.5 °F 73.8 °F 30.14 in NE 3.0 mph 7.0 mph 66 % 0.00 in
14:05 86.5 °F 74.7 °F 30.14 in ENE 1.0 mph 6.0 mph 68 % 0.00 in
14:10 87.1 °F 74.8 °F 30.14 in NNW 3.0 mph 6.0 mph 67 % 0.00 in
14:15 87.1 °F 73.9 °F 30.13 in SE 1.0 mph 6.0 mph 65 % 0.00 in
14:20 87.8 °F 75.4 °F 30.13 in ESE 2.0 mph 6.0 mph 67 % 0.00 in
14:25 88.2 °F 73.4 °F 30.13 in ESE 2.0 mph 6.0 mph 62 % 0.00 in
14:30 87.4 °F 74.7 °F 30.12 in ENE 2.0 mph 7.0 mph 66 % 0.00 in
14:35 87.6 °F 74.8 °F 30.12 in NNW 3.0 mph 7.0 mph 66 % 0.00 in
14:40 88.0 °F 73.8 °F 30.12 in ENE 2.0 mph 7.0 mph 63 % 0.00 in
14:46 88.2 °F 74.5 °F 30.12 in NW 2.0 mph 6.0 mph 64 % 0.00 in
14:55 88.2 °F 74.5 °F 30.12 in NW 2.0 mph 8.0 mph 64 % 0.00 in
15:00 88.2 °F 73.9 °F 30.11 in NNW 1.0 mph 8.0 mph 63 % 0.00 in
15:06 87.4 °F 72.9 °F 30.11 in Calm   8.0 mph 62 % 0.00 in
15:11 87.1 °F 74.3 °F 30.11 in Calm   8.0 mph 66 % 0.00 in
15:16 87.3 °F 73.6 °F 30.11 in WSW 3.0 mph 6.0 mph 64 % 0.00 in
15:21 86.7 °F 73.6 °F 30.11 in NNW 2.0 mph 6.0 mph 65 % 0.00 in
15:31 87.1 °F 72.5 °F 30.10 in NW 3.0 mph 5.0 mph 62 % 0.00 in
15:36 88.0 °F 74.3 °F 30.10 in Calm   4.0 mph 64 % 0.00 in
15:41 88.5 °F 74.3 °F 30.10 in NNW 1.0 mph 7.0 mph 63 % 0.00 in
15:46 88.2 °F 73.0 °F 30.10 in North 2.0 mph 7.0 mph 61 % 0.00 in
15:51 87.3 °F 73.0 °F 30.10 in Calm   7.0 mph 63 % 0.00 in
15:56 87.4 °F 72.9 °F 30.10 in ENE 3.0 mph 7.0 mph 62 % 0.00 in
16:01 87.3 °F 72.7 °F 30.10 in NNW 1.0 mph 7.0 mph 62 % 0.00 in
16:06 87.6 °F 72.5 °F 30.10 in SE 2.0 mph 5.0 mph 61 % 0.00 in
16:11 87.6 °F 72.5 °F 30.10 in NE 4.0 mph 7.0 mph 61 % 0.00 in
16:16 88.0 °F 73.4 °F 30.10 in Calm   7.0 mph 62 % 0.00 in
16:21 88.0 °F 72.9 °F 30.10 in ENE 5.0 mph 8.0 mph 61 % 0.00 in
16:31 87.8 °F 72.1 °F 30.10 in NE 3.0 mph 8.0 mph 60 % 0.00 in
16:41 87.3 °F 72.7 °F 30.09 in NW 2.0 mph 7.0 mph 62 % 0.00 in
16:51 87.6 °F 72.0 °F 30.09 in NNW 1.0 mph 7.0 mph 60 % 0.00 in
16:56 87.6 °F 72.5 °F 30.09 in ESE 2.0 mph 7.0 mph 61 % 0.00 in
17:01 87.6 °F 72.5 °F 30.09 in ENE 1.0 mph 7.0 mph 61 % 0.00 in
17:06 87.6 °F 73.0 °F 30.09 in North 2.0 mph 7.0 mph 62 % 0.00 in
17:11 87.4 °F 72.9 °F 30.09 in NE 3.0 mph 7.0 mph 62 % 0.00 in
17:16 87.4 °F 72.3 °F 30.09 in NE 1.0 mph 7.0 mph 61 % 0.00 in
17:21 87.4 °F 72.3 °F 30.09 in NNE 3.0 mph 6.0 mph 61 % 0.00 in
17:31 87.3 °F 73.0 °F 30.09 in NNW 2.0 mph 6.0 mph 63 % 0.00 in
17:36 87.1 °F 72.9 °F 30.09 in Calm   6.0 mph 63 % 0.00 in
17:41 86.9 °F 71.8 °F 30.09 in North 2.0 mph 7.0 mph 61 % 0.00 in
17:46 86.7 °F 71.6 °F 30.08 in NW 1.0 mph 7.0 mph 61 % 0.00 in
17:51 86.2 °F 71.6 °F 30.08 in NNW 1.0 mph 7.0 mph 62 % 0.00 in
18:01 85.5 °F 72.0 °F 30.09 in North 2.0 mph 7.0 mph 64 % 0.00 in
18:07 85.5 °F 72.3 °F 30.09 in SE 1.0 mph 7.0 mph 65 % 0.00 in
18:12 85.3 °F 72.1 °F 30.08 in Calm   6.0 mph 65 % 0.00 in
18:17 85.3 °F 72.7 °F 30.08 in East 1.0 mph 6.0 mph 66 % 0.00 in
18:22 84.9 °F 71.8 °F 30.09 in NW 3.0 mph 8.0 mph 65 % 0.00 in
18:37 84.4 °F 72.1 °F 30.09 in NNE 1.0 mph 5.0 mph 67 % 0.00 in
18:42 84.0 °F 72.3 °F 30.09 in ENE 2.0 mph 4.0 mph 68 % 0.00 in
18:47 83.8 °F 72.1 °F 30.09 in Calm   4.0 mph 68 % 0.00 in
18:52 83.7 °F 72.3 °F 30.09 in NE 1.0 mph 4.0 mph 69 % 0.00 in
18:57 83.5 °F 72.3 °F 30.09 in Calm   8.0 mph 69 % 0.00 in
19:02 83.1 °F 72.3 °F 30.09 in Calm   8.0 mph 70 % 0.00 in
19:07 82.9 °F 72.1 °F 30.09 in NNW 1.0 mph 8.0 mph 70 % 0.00 in
19:17 82.2 °F 72.3 °F 30.09 in Calm   4.0 mph 72 % 0.00 in
19:22 82.0 °F 72.1 °F 30.09 in Calm   3.0 mph 72 % 0.00 in
19:27 81.9 °F 72.3 °F 30.09 in Calm   3.0 mph 73 % 0.00 in
19:32 81.7 °F 72.1 °F 30.09 in Calm   2.0 mph 73 % 0.00 in
19:37 81.3 °F 72.3 °F 30.09 in Calm   2.0 mph 74 % 0.00 in
19:42 81.0 °F 72.3 °F 30.09 in Calm   1.0 mph 75 % 0.00 in
19:47 80.8 °F 72.1 °F 30.10 in Calm   1.0 mph 75 % 0.00 in
19:52 80.4 °F 72.1 °F 30.10 in Calm   1.0 mph 76 % 0.00 in
19:57 80.4 °F 72.1 °F 30.10 in Calm   1.0 mph 76 % 0.00 in
19:58 80.2 °F 72.3 °F 30.10 in Calm   1.0 mph 77 % 0.00 in
20:03 80.2 °F 72.3 °F 30.11 in Calm   1.0 mph 77 % 0.00 in
20:08 80.1 °F 72.1 °F 30.10 in Calm   1.0 mph 77 % 0.00 in
20:13 79.9 °F 72.3 °F 30.11 in Calm   1.0 mph 78 % 0.00 in
20:18 79.5 °F 72.5 °F 30.11 in Calm   1.0 mph 79 % 0.00 in
20:23 79.3 °F 72.3 °F 30.11 in Calm   1.0 mph 79 % 0.00 in
20:28 79.2 °F 72.5 °F 30.11 in Calm   1.0 mph 80 % 0.00 in
20:33 79.0 °F 72.3 °F 30.11 in Calm   1.0 mph 80 % 0.00 in
20:38 79.0 °F 72.3 °F 30.11 in Calm   1.0 mph 80 % 0.00 in
20:48 79.0 °F 72.7 °F 30.12 in ESE 1.0 mph 1.0 mph 81 % 0.00 in
20:53 79.2 °F 72.9 °F 30.12 in SE 1.0 mph 2.0 mph 81 % 0.00 in
20:58 79.3 °F 72.7 °F 30.12 in Calm   3.0 mph 80 % 0.00 in
21:03 79.3 °F 73.0 °F 30.12 in Calm   3.0 mph 81 % 0.00 in
21:08 79.3 °F 73.0 °F 30.12 in NE 2.0 mph 3.0 mph 81 % 0.00 in
21:13 79.3 °F 72.7 °F 30.12 in East 1.0 mph 4.0 mph 80 % 0.00 in
21:18 79.3 °F 72.7 °F 30.12 in Calm   4.0 mph 80 % 0.00 in
21:23 79.3 °F 72.7 °F 30.12 in Calm   4.0 mph 80 % 0.00 in
21:29 79.2 °F 72.5 °F 30.12 in Calm   3.0 mph 80 % 0.00 in
21:34 79.0 °F 72.3 °F 30.12 in Calm   3.0 mph 80 % 0.00 in
21:39 78.6 °F 72.3 °F 30.13 in Calm   1.0 mph 81 % 0.00 in
21:44 78.4 °F 72.5 °F 30.13 in Calm   1.0 mph 82 % 0.00 in
21:49 78.3 °F 72.3 °F 30.13 in Calm   1.0 mph 82 % 0.00 in
21:54 78.1 °F 72.5 °F 30.13 in Calm   1.0 mph 83 % 0.00 in
21:59 77.7 °F 72.5 °F 30.13 in Calm   1.0 mph 84 % 0.00 in
22:04 77.5 °F 72.3 °F 30.13 in Calm   1.0 mph 84 % 0.00 in
22:09 77.4 °F 72.5 °F 30.13 in Calm   1.0 mph 85 % 0.00 in
22:14 77.2 °F 72.7 °F 30.13 in Calm   1.0 mph 86 % 0.00 in
22:19 77.2 °F 72.7 °F 30.14 in Calm   1.0 mph 86 % 0.00 in
22:22 77.2 °F 72.7 °F 30.13 in Calm   1.0 mph 86 % 0.00 in
22:23 77.2 °F 72.7 °F 30.13 in Calm   1.0 mph 86 % 0.00 in
22:28 77.0 °F 72.9 °F 30.14 in Calm   1.0 mph 87 % 0.00 in
22:33 77.0 °F 72.9 °F 30.14 in Calm   1.0 mph 87 % 0.00 in
22:38 77.0 °F 72.9 °F 30.14 in Calm     87 % 0.00 in
22:43 76.8 °F 72.7 °F 30.14 in Calm     87 % 0.00 in
22:48 76.8 °F 72.7 °F 30.14 in Calm   1.0 mph 87 % 0.00 in
22:53 76.6 °F 72.9 °F 30.14 in Calm   1.0 mph 88 % 0.00 in
22:58 76.6 °F 72.9 °F 30.14 in Calm   1.0 mph 88 % 0.00 in
23:03 76.5 °F 72.7 °F 30.14 in Calm     88 % 0.00 in
23:08 76.3 °F 72.9 °F 30.14 in Calm     89 % 0.00 in
23:13 76.1 °F 72.7 °F 30.14 in Calm     89 % 0.00 in
23:18 75.9 °F 72.5 °F 30.14 in Calm     89 % 0.00 in
23:19 75.9 °F 72.5 °F 30.13 in Calm     89 % 0.00 in
23:29 75.7 °F 72.7 °F 30.13 in Calm     90 % 0.00 in
23:34 75.6 °F 72.5 °F 30.13 in Calm   1.0 mph 90 % 0.00 in
23:39 75.4 °F 72.3 °F 30.13 in Calm   1.0 mph 90 % 0.00 in
23:44 75.0 °F 72.1 °F 30.13 in Calm   1.0 mph 91 % 0.00 in
23:49 74.8 °F 72.0 °F 30.13 in Calm     91 % 0.00 in
23:54 74.7 °F 72.1 °F 30.13 in Calm     92 % 0.00 in
23:59 74.7 °F 72.1 °F 30.13 in Calm     92 % 0.00 in
Spring, Texas: Villages of Bridgestone
Compliments of Weather Underground - 2.75 mb

Script developed by  Jim McMurry - jmcmurry@mwt.net Adapted for the template by  Wim van der Kuil - Leuven-Template.eu

You find our weather info also at:

UK Metoffice

WeatherCloud

Weather Underground

Mid-South Weather Network

AWEKAS

Citizen Weather Observer Program (CWOP)

HAMweather, WeatherForYou, PWS Weather

Equipment we use:

Weather-station
Davis Vantage Vue

Weather-program
Meteohub

Weather-server
Debian 7.9 x86 (Guest)

Provider
DreamHost

Davis Vantage Vue

Meteohub

Debian 7.9 x86 (Guest)

DreamHost